Location: Bruderhein
(53.8035°N, 112.9265°W)
Time: 02:31:51
(UTC+00:00)

KKS-1 - Pass Details

Date: 08 April 2023
Orbit: 633 x 644 km, 98.2° (Epoch: 31 May)

Event Time Altitude Azimuth Distance (km) Brightness Sun altitude
Rises 07:07:51 0° 10° (N) 2,946 ? -28.8°
Reaches altitude 10° 07:10:09 10° 3° (N) 2,033 ? -28.9°
Enters shadow 07:13:49 38° 310° (NW) 983 ? -28.9°
